Location: Middelsbur
(53.6609°N, 7.5020°E)
Time: 12:18:31
(UTC+00:00)

Cosmos 1821 Rocket - Pass Details

Date: 06 July 2020
Orbit: 945 x 1004 km, 82.9° (Epoch: 07 August)

Event Time Altitude Azimuth Distance (km) Brightness Sun altitude
Exits shadow 23:30:57 18° 162° (SSE) 2,164 5.2 -13.8°
Maximum altitude 23:35:24 53° 92° (E) 1,157 4.4 -13.8°
Drops below altitude 10° 23:41:18 10° 18° (NNE) 2,680 7.6 -13.8°
Sets 23:43:51 0° 14° (NNE) 3,629 8.8 -13.8°
